Simultaneous Nadir Overpasses (SNOs) Predictions

Prediction of SNOs between AQUA and NOAA-19 Satellite Orbit:

Table of predicted SNOs for the next 14.0 days since TLE Epoch: 8/11/2018
Index Date (AQUA) Time (AQUA) Lat,Lon (AQUA) SZA (AQUA ) Date (NOAA-19) Time (NOAA-19) Lat,Lon (NOAA-19) SZA (NOAA-19 ) Distance(km) Time Diff (sec)
1 08/11/2018 19:23:05 -80.76, 31.47 112.22 08/11/2018 19:23:04 -80.75, 31.50 112.23 1.03 1
2 08/14/2018 00:56:47 80.75, 128.19 68.42 08/14/2018 00:56:42 80.76, 128.36 68.41 3.22 5
3 08/16/2018 06:30:29 -80.74,-135.21 110.91 08/16/2018 06:30:11 -80.75,-135.10 110.91 2.28 18
4 08/18/2018 12:04:10 80.73, -38.52 69.77 08/18/2018 12:03:48 80.75, -38.45 69.79 2.27 22
5 08/18/2018 12:53:37 -80.75, 128.89 110.18 08/18/2018 12:54:44 -80.75, 128.86 110.21 0.54 67
6 08/20/2018 17:37:52 -80.74, 58.02 109.52 08/20/2018 17:37:18 -80.74, 57.91 109.49 2.01 34
7 08/20/2018 18:27:19 80.74,-134.43 70.51 08/20/2018 18:28:21 80.76,-134.28 70.48 3.10 62
8 08/22/2018 23:11:34 80.73, 154.69 71.20 08/22/2018 23:10:55 80.74, 154.61 71.24 2.14 39
9 08/23/2018 00:01:01 -80.75, -37.92 108.75 08/23/2018 00:01:51 -80.75, -37.80 108.78 2.14 50
10 08/25/2018 04:45:16 -80.73,-108.83 108.05 08/25/2018 04:44:25 -80.74,-108.77 108.03 1.02 51




NCC Satellite Simultaneous Nadir Overpasses (SNOs) Prediction Service
